Location: *
(45.5224°N, 122.7471°W)
Time: 04:29:37
(UTC+00:00)

Meteor 1-4 Rocket - Pass Details

Date: 09 April 2020
Orbit: 449 x 503 km, 81.2° (Epoch: 24 May)

Event Time Altitude Azimuth Distance (km) Brightness Sun altitude
Exits shadow 12:12:48 20° 206° (SSW) 1,200 4.1 -14.4°
Maximum altitude 12:15:14 61° 283° (WNW) 579 2.7 -14.0°
Drops below altitude 10° 12:18:58 10° 4° (N) 1,717 5.7 -13.4°
Sets 12:21:07 0° 8° (N) 2,600 6.8 -13.1°
